Location: Prairie State College
(41.5244°N, 87.6382°W)
Time: 22:17:10
(UTC-05:00)

Cosmos 1140 Rocket - Visible Passes

Search period start: 30 March 2015 00:00
Search period end: 09 April 2015 00:00
Orbit: 746 x 768 km, 74.1° (Epoch: 30 March)

Date Brightness Start Highest point End Pass type
(mag) Time Alt. Az. Time Alt. Az. Time Alt. Az.
02 Apr 5.9 05:54:52 10° SSE 05:58:57 25° E 06:03:10 10° NE visible
03 Apr 6.4 05:16:33 10° ESE 05:18:51 13° E 05:21:26 10° ENE visible
05 Apr 5.2 05:34:59 10° SSE 05:39:33 34° ESE 05:44:12 10° NE visible
06 Apr 6.1 04:56:02 10° SE 04:59:24 19° E 05:03:00 10° NE visible
07 Apr 3.6 05:55:19 10° SSW 06:00:27 87° ESE 06:05:39 10° NNE visible
08 Apr 4.5 05:15:18 10° S 05:20:10 47° ESE 05:25:07 10° NNE visible
